Change the Weather History Date:

Wednesday, October 3, 2012

  Actual Average Record
Temperature  
Mean Temperature 62 °F -  
Max Temperature 64 °F 60 °F 75 °F (2005)
Min Temperature 59 °F 38 °F 32 °F (2010)
Degree Days  
Heating Degree Days 4    
Growing Degree Days 12 (Base 50)    
Moisture  
Dew Point 57 °F    
Average Humidity 88    
Maximum Humidity 90    
Minimum Humidity 83    
Precipitation  
Precipitation 0.08 in - - ()
Sea Level Pressure  
Sea Level Pressure 30.11 in    
Wind  
Wind Speed 0 mph (East)    
Max Wind Speed 4 mph    
Max Gust Speed -    
Visibility 2 miles    
Events Rain    
Averages and records for this station are not official NWS values.
T = Trace of Precipitation, MM = Missing Value Source: NWS Daily Summary

Daily Weather History Graph

Daily Weather History Graph

Search for Another Location

Airport or City:

Trip Planner

Search our weather history database for the weather conditions in past years. The results will help you decide how hot, cold, wet, or windy it might be!

Date:

Astronomy

Oct. 03, 2012 Rise Set
Actual Time 6:48 AM EDT 6:25 PM EDT
Civil Twilight 6:19 AM EDT 6:53 PM EDT
Nautical Twilight 5:46 AM EDT 7:25 PM EDT
Astronomical Twilight 5:13 AM EDT 7:58 PM EDT
Moon 8:09 PM EDT (10/3) 10:14 AM EDT (10/3)
Length of Visible Light 12h 33m
Length of Day
11h 37m
Waning Gibbous, 89% of the Moon is Illuminated
Oct 3
Waning Gibbous
Oct 8
Last Quarter
Oct 15
New
Oct 21
First Quarter
Oct 29
Full

Hourly Weather History & Observations

Time (EDT) Temp. Dew Point Humidity Pressure Visibility Wind Dir Wind Speed Gust Speed Precip Events Conditions
12:01 AM 59.0 °F 55.4 °F 88% 30.07 in 1.8 mi Calm Calm - N/A   Overcast
12:12 AM 59.0 °F 55.4 °F 88% 30.07 in 1.8 mi Calm Calm - N/A   Overcast
12:39 AM 59.0 °F 55.4 °F 88% 30.07 in 2.0 mi Calm Calm - N/A   Overcast
12:47 AM 59.0 °F 55.4 °F 88% 30.07 in 1.2 mi Calm Calm - N/A   Overcast
12:52 AM 59.0 °F 55.0 °F 87% 30.08 in 1.2 mi Calm Calm - 0.00 in Rain Light Rain
1:09 AM 59.0 °F 55.4 °F 88% 30.07 in 1.0 mi Calm Calm - 0.00 in   Mist
1:23 AM 59.0 °F 55.4 °F 88% 30.06 in 0.8 mi Calm Calm - 0.00 in   Mist
1:52 AM 59.0 °F 55.0 °F 87% 30.08 in 0.8 mi Calm Calm - 0.00 in   Mist
2:21 AM 59.0 °F 55.4 °F 88% 30.06 in 1.2 mi Calm Calm - 0.01 in Rain Light Rain
2:44 AM 59.0 °F 55.4 °F 88% 30.06 in 1.0 mi Calm Calm - 0.01 in Rain Light Rain
2:52 AM 59.0 °F 55.0 °F 87% 30.07 in 1.5 mi Calm Calm - 0.01 in   Overcast
3:04 AM 59.0 °F 55.4 °F 88% 30.06 in 1.5 mi Calm Calm - N/A   Overcast
3:15 AM 59.0 °F 55.4 °F 88% 30.06 in 1.2 mi Calm Calm - N/A   Overcast
3:23 AM 59.0 °F 55.4 °F 88% 30.05 in 1.5 mi Calm Calm - N/A   Overcast
3:45 AM 59.0 °F 55.4 °F 88% 30.06 in 1.2 mi Calm Calm - N/A   Overcast
3:52 AM 59.0 °F 55.0 °F 87% 30.08 in 1.0 mi Calm Calm - N/A   Mist
4:12 AM 59.0 °F 55.4 °F 88% 30.07 in 0.8 mi Calm Calm - N/A   Mist
4:45 AM 59.0 °F 55.4 °F 88% 30.07 in 1.0 mi Calm Calm - 0.01 in   Mist
4:52 AM 59.0 °F 55.0 °F 87% 30.09 in 1.0 mi Calm Calm - 0.01 in   Mist
5:14 AM 59.0 °F 55.4 °F 88% 30.08 in 1.2 mi Calm Calm - N/A   Overcast
5:33 AM 59.0 °F 55.4 °F 88% 30.08 in 1.0 mi Calm Calm - N/A   Mist
5:52 AM 59.0 °F 55.0 °F 87% 30.10 in 1.2 mi Calm Calm - 0.01 in   Overcast
6:19 AM 59.0 °F 55.4 °F 88% 30.08 in 1.5 mi Calm Calm - N/A   Overcast
6:37 AM 59.0 °F 55.4 °F 88% 30.09 in 2.0 mi Calm Calm - N/A   Overcast
6:49 AM 59.0 °F 55.4 °F 88% 30.10 in 1.8 mi Calm Calm - N/A   Overcast
6:52 AM 59.0 °F 55.9 °F 90% 30.11 in 1.8 mi Calm Calm - N/A   Overcast
7:05 AM 59.0 °F 55.4 °F 88% 30.10 in 1.0 mi Calm Calm - N/A   Overcast
7:19 AM 59.0 °F 55.4 °F 88% 30.11 in 1.2 mi Calm Calm - 0.01 in   Overcast
7:37 AM 59.0 °F 55.4 °F 88% 30.10 in 1.8 mi Calm Calm - 0.01 in   Overcast
7:45 AM 59.0 °F 55.4 °F 88% 30.10 in 1.8 mi Calm Calm - 0.01 in   Overcast
7:52 AM 59.0 °F 55.9 °F 90% 30.13 in 2.0 mi Calm Calm - 0.01 in   Overcast
8:02 AM 59.0 °F 55.4 °F 88% 30.11 in 1.8 mi Calm Calm - N/A   Overcast
8:12 AM 59.0 °F 55.4 °F 88% 30.12 in 2.5 mi Calm Calm - N/A   Overcast
8:50 AM 60.8 °F 57.2 °F 88% 30.12 in 2.5 mi Calm Calm - N/A   Overcast
8:52 AM 60.1 °F 57.0 °F 90% 30.14 in 2.5 mi Calm Calm - N/A   Overcast
9:00 AM 60.8 °F 57.2 °F 88% 30.12 in 2.5 mi Calm Calm - N/A   Overcast
9:41 AM 60.8 °F 57.2 °F 88% 30.12 in 3.0 mi Calm Calm - N/A   Overcast
9:52 AM 61.0 °F 57.0 °F 87% 30.14 in 3.0 mi Calm Calm - N/A   Overcast
10:09 AM 60.8 °F 57.2 °F 88% 30.12 in 2.5 mi Calm Calm - 0.01 in Rain Light Rain
10:18 AM 60.8 °F 57.2 °F 88% 30.11 in 3.0 mi Calm Calm - 0.01 in Rain Light Rain
10:52 AM 62.1 °F 57.9 °F 86% 30.14 in 4.0 mi Calm Calm - 0.01 in Rain Light Rain
11:52 AM 63.0 °F 57.9 °F 84% 30.14 in 2.0 mi Calm Calm - 0.01 in Rain Light Rain
12:30 PM 62.6 °F 59.0 °F 88% 30.13 in 3.0 mi Calm Calm - 0.01 in   Overcast
12:52 PM 63.0 °F 59.0 °F 87% 30.14 in 6.0 mi Calm Calm - 0.01 in   Overcast
1:28 PM 64.4 °F 59.0 °F 83% 30.11 in 2.5 mi Calm Calm - N/A   Haze
1:40 PM 64.4 °F 59.0 °F 83% 30.11 in 4.0 mi Calm Calm - N/A   Haze
1:52 PM 64.0 °F 59.0 °F 84% 30.12 in 4.0 mi Calm Calm - N/A   Haze
2:52 PM 64.0 °F 59.0 °F 84% 30.12 in 2.5 mi Calm Calm - N/A   Haze
3:07 PM 64.4 °F 60.8 °F 88% 30.11 in 4.0 mi East 3.5 mph - N/A   Overcast
3:52 PM 64.0 °F 59.0 °F 84% 30.13 in 4.0 mi Calm Calm - N/A   Haze
4:52 PM 63.0 °F 59.0 °F 87% 30.14 in 3.0 mi Calm Calm - N/A   Overcast
5:09 PM 62.6 °F 59.0 °F 88% 30.12 in 2.5 mi Calm Calm - N/A   Overcast
5:20 PM 62.6 °F 59.0 °F 88% 30.13 in 3.0 mi Calm Calm - N/A   Overcast
5:39 PM 62.6 °F 59.0 °F 88% 30.13 in 2.5 mi Calm Calm - N/A   Overcast
5:52 PM 63.0 °F 59.0 °F 87% 30.15 in 2.0 mi Calm Calm - N/A   Overcast
6:02 PM 62.6 °F 59.0 °F 88% 30.14 in 1.5 mi Calm Calm - N/A   Overcast
6:34 PM 62.6 °F 59.0 °F 88% 30.14 in 2.0 mi Calm Calm - N/A   Overcast
6:48 PM 62.6 °F 59.0 °F 88% 30.15 in 3.0 mi Calm Calm - N/A   Overcast
6:52 PM 62.1 °F 59.0 °F 90% 30.16 in 3.0 mi Calm Calm - N/A   Overcast
7:24 PM 62.6 °F 59.0 °F 88% 30.15 in 2.0 mi Calm Calm - N/A   Overcast
7:52 PM 62.1 °F 59.0 °F 90% 30.16 in 2.5 mi Calm Calm - N/A   Overcast
8:14 PM 62.6 °F 59.0 °F 88% 30.15 in 1.8 mi Calm Calm - N/A   Overcast
8:22 PM 62.6 °F 59.0 °F 88% 30.15 in 2.0 mi Calm Calm - N/A   Overcast
8:52 PM 62.1 °F 59.0 °F 90% 30.17 in 2.0 mi Calm Calm - N/A   Overcast
9:10 PM 62.6 °F 59.0 °F 88% 30.17 in 3.0 mi Calm Calm - N/A   Overcast
9:49 PM 62.6 °F 59.0 °F 88% 30.17 in 1.5 mi Calm Calm - N/A   Overcast
9:52 PM 62.1 °F 59.0 °F 90% 30.18 in 1.5 mi Calm Calm - N/A   Overcast
10:25 PM 62.6 °F 59.0 °F 88% 30.17 in 3.0 mi Calm Calm - N/A   Overcast
10:34 PM 62.6 °F 59.0 °F 88% 30.17 in 2.5 mi Calm Calm - N/A   Overcast
10:52 PM 62.1 °F 59.0 °F 90% 30.19 in 3.0 mi Calm Calm - 0.01 in   Overcast
11:52 PM 62.1 °F 57.9 °F 86% 30.19 in 10.0 mi Calm Calm - N/A   Overcast